[[{"header":{"parameterUnit":"m.s-1","parameterCategory":1,"la1":30.2992,"la2":30.254,"lo1":-89.0895,"lo2":-89.0443,"dy":0.0025,"dx":0.0025,"nx":19,"ny":19,"refTime":"2026-04-02T21:00:00:Z","depth":0,"parameterNumber":2,"parameterNumberName":"U-component_of_WINDS"},"data":[0,0,0,-3.6779,-3.6781,-3.6893,-3.6894,-3.7042,-3.7043,0,0,0,0,0,0,0,0,0,0,0,-3.6748,-3.6749,-3.6779,-3.6781,-3.6893,-3.6894,-3.7041,-3.7043,0,0,0,0,0,0,0,0,0,0,0,-3.6748,-3.6749,-3.675,-3.6782,-3.6893,-3.6894,-3.7041,-3.6955,0,0,0,0,0,0,0,0,0,0,-3.6846,-3.6819,-3.6749,-3.675,-3.6783,-3.6893,-3.6894,-3.6951,-3.696,-3.6993,0,-3.7022,0,-3.7035,-3.7053,-3.7054,0,0,0,-3.678,-3.6811,-3.6839,-3.675,-3.6784,-3.6893,-3.6842,-3.6956,-3.6967,-3.7006,-3.7024,-3.703,-3.7038,-3.7054,-3.7055,-3.7248,-3.7249,0,0,-3.6773,-3.6769,-3.6832,-3.6847,-3.6829,-3.6839,-3.6846,-3.6963,-3.6983,-3.7025,-3.7033,-3.704,-3.7055,-3.7056,-3.7247,-3.7249,0,0,0,-3.6757,-3.6765,-3.679,-3.6841,-3.686,-3.6842,-3.685,-3.6977,-3.6986,-3.7035,-3.7042,-3.7056,-3.7058,-3.7246,-3.7248,-3.7291,0,0,0,-3.6753,-3.6756,-3.6788,-3.6786,-3.6858,-3.692,-3.6862,-3.6978,-3.6991,-3.7041,-3.7056,-3.7059,-3.7245,-3.7247,-3.7288,-3.7312,0,0,0,-3.674,-3.6754,-3.6771,-3.6786,-3.6834,-3.6918,-3.6934,-3.6981,-3.6996,-3.7054,-3.706,-3.7245,-3.7247,-3.7285,-3.7307,-3.7361,0,0,0,-3.6725,-3.6809,-3.6772,-3.6869,-3.6833,-3.6945,-3.6933,-3.7017,-3.7072,-3.7057,-3.7245,-3.7248,-3.7284,-3.7304,-3.7358,-3.7404,-3.7424,0,0,-3.6828,-3.6821,-3.6878,-3.6849,-3.6966,-3.6928,-3.7053,-3.7107,-3.7117,-3.7204,-3.7209,-3.7289,-3.7307,-3.736,-3.7538,-3.7553,0,0,0,-3.691,-3.6951,-3.6983,-3.7035,-3.7079,-3.7119,-3.7155,-3.7176,-3.725,-3.7161,-3.7324,-3.7335,-3.7367,-3.7389,-3.7402,-3.7429,-3.7258,-3.7258,-3.7258,-3.7049,-3.7057,-3.7152,-3.7174,-3.7226,-3.7263,-3.7305,-3.7339,-3.7333,-3.7371,-3.7396,-3.7503,-3.7529,-3.7539,-3.7567,-3.7424,-3.7424,-3.7424,-3.7424,-3.72,-3.7258,-3.7249,-3.7337,-3.7346,-3.7421,-3.7461,-3.7454,-3.7525,-3.7485,-3.7513,-3.7466,-3.7556,-3.7581,-3.7427,-3.7427,-3.7426,-3.7426,-3.7426,-3.729,-3.7319,-3.7343,-3.7421,-3.748,-3.75,-3.7569,-3.7575,-3.7581,-3.761,-3.7636,-3.7635,-3.7634,-3.7622,-3.7623,-3.7623,-3.7624,-3.7624,-3.7624,-3.7372,-3.7398,-3.7455,-3.751,-3.7545,-3.7592,-3.7633,-3.7667,-3.7708,-3.7706,-3.7707,-3.7695,-3.7564,-3.7529,-3.763,-3.7629,-3.7628,-3.7627,-3.7627,-3.7518,-3.7487,-3.7574,-3.7609,-3.7675,-3.7734,-3.7742,-3.7812,-3.7843,-3.7876,-3.7861,-3.7763,-3.7755,-3.7745,-3.7716,-3.7859,-3.7859,-3.7859,-3.7859,-3.7592,-3.759,-3.7681,-3.7737,-3.7793,-3.781,-3.7909,-3.7942,-3.7971,-3.7991,-3.7972,-3.7935,-3.7925,-3.7924,-3.7909,-3.7882,-3.8064,-3.8064,-3.8065,-3.7682,-3.7686,-3.7768,-3.7796,-3.7849,-3.7894,-3.7988,-3.8053,-3.808,-3.8073,-3.8006,-3.7997,-3.7938,-3.7919,-3.7907,-3.7885,-3.7836,0,0]},{"header":{"parameterUnit":"m.s-1","parameterCategory":1,"la1":30.2992,"la2":30.254,"lo1":-89.0895,"lo2":-89.0443,"dy":0.0025,"dx":0.0025,"nx":19,"ny":19,"refTime":"2026-04-02T21:00:00:Z","depth":0,"parameterNumber":3,"parameterNumberName":"V-component_of_WINDS"},"data":[0,0,0,2.5185,2.5187,2.5276,2.5276,2.5382,2.5383,0,0,0,0,0,0,0,0,0,0,0,2.5155,2.5156,2.5185,2.5187,2.5276,2.5276,2.5382,2.5383,0,0,0,0,0,0,0,0,0,0,0,2.5155,2.5156,2.5156,2.5188,2.5276,2.5276,2.5382,2.5317,0,0,0,0,0,0,0,0,0,0,2.5233,2.5201,2.5155,2.5156,2.5188,2.5276,2.5276,2.5314,2.5321,2.5339,0,2.5354,0,2.5371,2.539,2.539,0,0,0,2.519,2.5195,2.5223,2.5156,2.5189,2.5276,2.5237,2.5318,2.5326,2.5348,2.5356,2.536,2.5372,2.539,2.5391,2.5488,2.5488,0,0,2.5185,2.5168,2.5217,2.5228,2.5214,2.5234,2.5239,2.5323,2.533,2.5356,2.5363,2.5374,2.5391,2.5392,2.5488,2.5488,0,0,0,2.5169,2.5165,2.5191,2.5223,2.524,2.5236,2.5243,2.5326,2.5336,2.5364,2.5375,2.5392,2.5393,2.5487,2.5488,2.549,0,0,0,2.5166,2.5156,2.5189,2.5179,2.5238,2.5284,2.5244,2.533,2.534,2.5375,2.5392,2.5394,2.5487,2.5488,2.5489,2.5493,0,0,0,2.5151,2.5154,2.5166,2.5178,2.5216,2.5283,2.5298,2.5333,2.5347,2.539,2.5394,2.5487,2.5487,2.5488,2.5492,2.5515,0,0,0,2.5129,2.5164,2.5165,2.5209,2.5215,2.5284,2.5298,2.5349,2.5386,2.5392,2.5487,2.5488,2.5488,2.5491,2.5514,2.5532,2.5538,0,0,2.5164,2.5167,2.5195,2.5199,2.5264,2.5272,2.5337,2.5385,2.5403,2.5458,2.5461,2.5489,2.5492,2.5515,2.5575,2.558,0,0,0,2.52,2.522,2.5241,2.5276,2.5316,2.535,2.5391,2.541,2.5458,2.5429,2.5504,2.5506,2.552,2.553,2.5533,2.5547,2.5491,2.5491,2.5491,2.5225,2.5249,2.5297,2.5332,2.5366,2.541,2.544,2.5472,2.5484,2.5502,2.5518,2.5552,2.5562,2.5565,2.558,2.5529,2.5529,2.5529,2.5529,2.528,2.5312,2.533,2.5383,2.5408,2.5452,2.5496,2.5504,2.5549,2.5541,2.5555,2.5544,2.557,2.5583,2.553,2.5529,2.5529,2.5529,2.5529,2.5299,2.5319,2.5342,2.5399,2.5439,2.5473,2.5517,2.5538,2.5557,2.5571,2.5592,2.5592,2.5595,2.5579,2.5579,2.5579,2.558,2.558,2.558,2.531,2.5337,2.5371,2.5419,2.5446,2.5484,2.553,2.5557,2.5593,2.5604,2.5605,2.5616,2.5568,2.5556,2.5582,2.5581,2.5581,2.5581,2.5581,2.5357,2.535,2.5404,2.5432,2.549,2.553,2.5557,2.5611,2.5637,2.5658,2.5667,2.5628,2.5633,2.563,2.562,2.5661,2.5661,2.5661,2.5661,2.5374,2.5379,2.544,2.5483,2.5528,2.5559,2.5619,2.5656,2.5693,2.5711,2.5708,2.5697,2.5693,2.57,2.5695,2.5686,2.5744,2.5744,2.5744,2.5405,2.5416,2.5463,2.5501,2.555,2.5591,2.5649,2.5698,2.5738,2.5748,2.5725,2.5722,2.5704,2.5697,2.5705,2.5697,2.5682,0,0]}]]